Station BMTW1 - 9445958 - Bremerton, WA Image indicating link to RSS feed of recent meteorological observations for station BMTW1


Conditions at BMTW1 as of
(5:30 pm PDT on 05/20/2024)
0030 GMT on 05/21/2024:
     

Click on the graph icon in the table below to see a time series plot of the last five days of that observation.

5-day plot - Wind Direction Wind Direction (WDIR): W ( 270 deg true )
5-day plot - Wind Speed Wind Speed (WSPD): 5.1 kts
5-day plot - Wind Gust Wind Gust (GST): 7.0 kts
5-day plot - Atmospheric Pressure Atmospheric Pressure (PRES):30.22 in
5-day plot - Air Temperature Air Temperature (ATMP): 61.9 °F
5-day plot - Wind Speed at 10 Meters Wind Speed at 10 meters (WSPD10M): 5.8 kts
5-day plot - Wind Speed at 20 Meters Wind Speed at 20 meters (WSPD20M): 5.8 kts
5-day plot -  Wind Speed, Wind Gust and Atmospheric Pressure Combined plot of Wind Speed, Gust, and Air Pressure
NOS Water Level Observation Network Water Level
Previous observations
TIME
(PDT)
5-day plot - Wind Direction
WDIR
 
5-day plot - Wind Speed
WSPD
kts
5-day plot - Wind Gust
GST
kts
5-day plot - Wave Height
WVHT
ft
5-day plot - Dominant Wave Period
DPD
sec
5-day plot - Average Wave Period
APD
sec
5-day plot - Mean Wave Direction
MWD
 
5-day plot - Atmospheric Pressure
PRES
in
5-day plot - Pressure Tendency
PTDY
in
5-day plot - Air Temperature
ATMP
°F
5-day plot - Water Temperature
WTMP
°F
5-day plot - Dew Point
DEWP
°F
5-day plot - Salinity
SAL
psu
5-day plot - Visibility
VIS
nmi
5-day plot - Tide (above MLLW)
TIDE
ft
2024-05-20 05:24 pm W 5.1 7.0----30.22- 61.7-----
2024-05-20 05:18 pm W 5.1 7.0----30.22- 61.3-----
2024-05-20 05:12 pm W 6.0 8.0----30.22- 61.2-----
2024-05-20 05:06 pm W 6.0 8.0----30.22- 61.5-----
2024-05-20 05:00 pm W 7.0 8.0----30.22-0.05 61.3-----
2024-05-20 04:54 pm W 6.0 8.9----30.22- 62.1-----
2024-05-20 04:48 pm W 6.0 8.9----30.22- 62.6-----
2024-05-20 04:42 pm W 5.1 8.0----30.23- 63.3-----
2024-05-20 04:36 pm W 6.0 8.9----30.23- 62.8-----
2024-05-20 04:30 pm W 5.1 6.0----30.23- 63.9-----
2024-05-20 04:24 pmWNW 5.1 6.0----30.23- 64.2-----
2024-05-20 04:18 pm W 4.1 5.1----30.23- 64.2-----
2024-05-20 04:12 pmWNW 4.1 5.1----30.23- 63.1-----
2024-05-20 04:06 pmWNW 5.1 5.1----30.24- 62.2-----
2024-05-20 04:00 pmWNW 5.1 5.1----30.24-0.05------
2024-05-20 03:54 pm W 5.1 6.0----30.24-------
2024-05-20 03:48 pm W 5.1 6.0----30.24-------
2024-05-20 03:42 pm W 5.1 7.0----30.24-------
2024-05-20 03:36 pm W 5.1 7.0----30.24-------
2024-05-20 03:30 pm W 7.0 8.9----30.24- 61.2-----
2024-05-20 03:24 pm W 7.0 8.0----30.25- 61.7-----
2024-05-20 03:18 pm W 5.1 7.0----30.25-------
2024-05-20 03:12 pm W 4.1 6.0----30.25- 63.3-----
2024-05-20 03:06 pm W 4.1 6.0----30.26- 62.8-----
2024-05-20 03:00 pm W 5.1 7.0----30.26-0.04 63.3-----
2024-05-20 02:54 pm W 5.1 7.0----30.26- 63.0-----
2024-05-20 02:48 pm W 6.0 7.0----30.26- 62.8-----
2024-05-20 02:42 pm W 5.1 7.0----30.26- 63.1-----
2024-05-20 02:36 pm W 5.1 6.0----30.26- 62.8-----
2024-05-20 02:30 pmWNW 4.1 5.1----30.27- 60.4-----
2024-05-20 02:24 pm NW 2.9 2.9----30.27- 61.2-----
2024-05-20 02:18 pmNNW 1.9 4.1----30.27- 61.3-----
2024-05-20 02:12 pm W 2.9 4.1----30.27- 63.1-----
2024-05-20 02:06 pmWNW 2.9 4.1----30.27- 62.2-----
2024-05-20 02:00 pmWNW 2.9 4.1----30.27-0.03 61.0-----
2024-05-20 01:54 pm NW 4.1 4.1----30.27- 59.5-----
2024-05-20 01:48 pm N 1.9 4.1----30.27- 60.8-----
2024-05-20 01:42 pm N 2.9 4.1----30.27- 59.5-----
2024-05-20 01:36 pm N 2.9 4.1----30.28- 59.4-----
2024-05-20 01:30 pm- 0.0 4.1----30.28-------
2024-05-20 01:24 pmNNW 2.9 4.1----30.28-------
2024-05-20 01:18 pmENE 2.9 5.1----30.28- 61.0-----
2024-05-20 01:12 pm E 2.9 5.1----30.28- 60.3-----
2024-05-20 01:06 pm NE 2.9 5.1----30.28- 59.9-----
2024-05-20 01:00 pmENE 2.9 5.1----30.29-0.03 61.0-----
2024-05-20 12:54 pmENE 2.9 6.0----30.29- 59.9-----
2024-05-20 12:48 pm E 4.1 7.0----30.29-------
2024-05-20 12:42 pm E 4.1 7.0----30.29- 58.5-----
2024-05-20 12:36 pmENE 4.1 6.0----30.29- 58.1-----
2024-05-20 12:30 pm E 4.1 8.0----30.29- 59.0-----
2024-05-20 12:24 pm E 4.1 8.9----30.29- 58.3-----
2024-05-20 12:18 pmENE 4.1 8.0----30.29- 57.6-----
2024-05-20 12:12 pm E 4.1 8.0----30.29- 57.2-----
2024-05-20 12:06 pmENE 5.1 8.0----30.29- 56.7-----
2024-05-20 12:00 pm E 4.1 8.9----30.30-0.02 55.9-----
2024-05-20 11:54 am E 5.1 7.0----30.30- 56.1-----
2024-05-20 11:48 am E 5.1 8.0----30.30- 55.6-----
2024-05-20 11:42 amENE 2.9 5.1----30.30- 56.7-----
2024-05-20 11:36 am E 5.1 6.0----30.30- 54.9-----
2024-05-20 11:30 am E 5.1 7.0----30.30- 53.8-----
2024-05-20 11:24 am E 5.1 7.0----30.30- 54.3-----
2024-05-20 11:18 am E 2.9 5.1----30.30-------
2024-05-20 11:12 amENE 2.9 6.0----30.30- 53.8-----
2024-05-20 11:06 amENE 4.1 7.0----30.30- 53.1-----
2024-05-20 11:00 amENE 5.1 7.0----30.30-0.01 52.3-----
2024-05-20 10:54 amENE 4.1 6.0----30.31- 52.5-----
2024-05-20 10:48 amENE 4.1 6.0----30.31- 52.9-----
2024-05-20 10:42 amENE 4.1 7.0----30.31- 52.5-----
2024-05-20 10:36 am NE 5.1 6.0----30.31- 51.8-----
2024-05-20 10:30 am NE 4.1 6.0----30.31- 51.4-----
2024-05-20 10:24 am NE 4.1 5.1----30.31- 50.9-----
2024-05-20 10:18 am NE 2.9 6.0----30.31- 50.9-----
2024-05-20 10:12 amNNE 2.9 5.1----30.31- 50.4-----
2024-05-20 10:06 amENE 2.9 4.1----30.31- 50.2-----
2024-05-20 10:00 amNNE 2.9 5.1----30.31+0.00 49.3-----
2024-05-20 09:54 am NE 4.1 5.1----30.31- 48.9-----
2024-05-20 09:48 am NE 4.1 6.0----30.32- 48.7-----
2024-05-20 09:42 amENE 2.9 5.1----30.31- 48.9-----
2024-05-20 09:36 amENE 2.9 5.1----30.31- 48.4-----
2024-05-20 09:30 am NE 4.1 6.0----30.32- 48.0-----
2024-05-20 09:24 am NE 5.1 7.0----30.32- 47.3-----
2024-05-20 09:18 amENE 2.9 5.1----30.32- 48.4-----
2024-05-20 09:12 am E 2.9 4.1----30.32- 48.2-----
2024-05-20 09:06 amENE 1.9 5.1----30.32- 48.0-----
2024-05-20 09:00 amENE 1.9 5.1----30.32+0.02 48.2-----
2024-05-20 08:54 amESE 2.9 4.1----30.32- 47.7-----
2024-05-20 08:48 amENE 1.0 2.9----30.32- 48.0-----
2024-05-20 08:42 am- 0.0 4.1----30.32- 48.0-----
2024-05-20 08:36 am NE 2.9 5.1----30.32- 46.6-----
2024-05-20 08:30 am E 4.1 4.1----30.32- 46.4-----
2024-05-20 08:24 amNNE 2.9 4.1----30.32- 46.6-----
2024-05-20 08:18 amNNE 2.9 4.1----30.31- 46.4-----
2024-05-20 08:12 amNNE 2.9 5.1----30.31- 46.0-----
2024-05-20 08:06 am N 1.9 5.1----30.31- 46.2-----
2024-05-20 08:00 am N 1.9 5.1----30.31+0.02 46.2-----
2024-05-20 07:54 am N 1.9 5.1----30.31- 46.2-----
2024-05-20 07:48 amNNE 1.9 5.1----30.31- 46.0-----
2024-05-20 07:42 amNNE 2.9 5.1----30.31- 45.3-----
2024-05-20 07:36 am N 1.9 5.1----30.31- 45.5-----
2024-05-20 07:30 am N 2.9 5.1----30.31- 44.8-----
2024-05-20 07:24 am NE 2.9 5.1----30.31- 44.4-----
2024-05-20 07:18 am NE 4.1 6.0----30.32- 43.9-----
2024-05-20 07:12 amENE 4.1 7.0----30.32- 43.5-----
2024-05-20 07:06 am NE 2.9 6.0----30.31- 43.7-----
2024-05-20 07:00 amNNE 5.1 7.0----30.31+0.03 43.0-----
2024-05-20 06:54 amNNE 4.1 8.0----30.31- 43.2-----
2024-05-20 06:48 amNNE 4.1 8.0----30.31- 43.3-----
2024-05-20 06:42 am NE 5.1 6.0----30.31- 42.8-----
2024-05-20 06:36 amNNE 4.1 7.0----30.31- 43.2-----
2024-05-20 06:30 amNNE 4.1 7.0----30.30- 43.0-----
2024-05-20 06:24 am NE 4.1 6.0----30.30- 43.0-----
2024-05-20 06:18 am NE 5.1 7.0----30.30- 42.8-----
2024-05-20 06:12 am NE 5.1 7.0----30.30- 43.0-----
2024-05-20 06:06 am NE 4.1 6.0----30.30- 43.3-----
2024-05-20 06:00 am NE 2.9 8.0----30.30+0.01 43.7-----
2024-05-20 05:54 am NE 5.1 7.0----30.30- 43.5-----
2024-05-20 05:48 am NE 5.1 7.0----30.29- 43.5-----
2024-05-20 05:42 am NE 5.1 8.0----30.29- 43.9-----
2024-05-20 05:36 am E 2.9 7.0----30.29- 43.7-----
2024-05-20 05:30 am NE 5.1 7.0----30.29- 43.7-----
2024-05-20 05:24 amENE 4.1 6.0----30.29- 43.7-----
2024-05-20 05:18 amENE 2.9 6.0----30.29- 44.2-----
2024-05-20 05:12 am NE 2.9 5.1----30.29- 44.6-----
2024-05-20 05:06 am NE 2.9 5.1----30.29- 44.6-----
2024-05-20 05:00 amENE 2.9 5.1----30.29+0.01 44.6-----
2024-05-20 04:54 amENE 4.1 5.1----30.29- 44.2-----
2024-05-20 04:48 am NE 4.1 6.0----30.29- 44.8-----
2024-05-20 04:42 am NE 4.1 5.1----30.29- 44.6-----
2024-05-20 04:36 am NE 5.1 6.0----30.29- 44.6-----
2024-05-20 04:30 am NE 4.1 5.1----30.29- 45.0-----
2024-05-20 04:24 am- 0.0 4.1----30.29- 45.5-----
2024-05-20 04:18 am NE 4.1 5.1------------
2024-05-20 04:12 am NE 1.9 4.1----30.29- 45.7-----
2024-05-20 04:06 am NE 1.9 5.1----30.29- 46.0-----
2024-05-20 04:00 amNNE 2.9 5.1----30.29+0.00 45.9-----
2024-05-20 03:54 amNNE 1.9 4.1----30.29- 45.9-----
2024-05-20 03:48 am NE 2.9 5.1----30.29- 45.3-----
2024-05-20 03:42 am NE 4.1 5.1----30.29- 45.5-----
2024-05-20 03:36 amENE 4.1 5.1----30.29- 45.9-----
2024-05-20 03:30 amENE 4.1 5.1----30.29- 45.9-----
2024-05-20 03:24 am NE 2.9 5.1----30.29- 46.4-----
2024-05-20 03:18 amNNE 2.9 5.1----30.29- 46.2-----
2024-05-20 03:12 amNNE 2.9 5.1----30.29- 46.2-----
2024-05-20 03:06 amENE 2.9 6.0----30.29- 46.2-----
2024-05-20 03:00 am NE 4.1 6.0----30.29+0.01 46.4-----
2024-05-20 02:54 am NE 4.1 6.0----30.29- 46.4-----
2024-05-20 02:48 am NE 4.1 5.1----30.28- 46.8-----
2024-05-20 02:42 amNNE 1.9 5.1----30.28- 47.3-----
2024-05-20 02:36 am NE 1.9 5.1----30.28- 47.3-----
2024-05-20 02:30 am NE 4.1 7.0----30.28- 47.3-----
2024-05-20 02:24 am NE 2.9 5.1----30.28- 47.5-----
2024-05-20 02:18 amNNE 4.1 6.0----30.28- 47.5-----
2024-05-20 02:12 am NE 2.9 5.1----30.28- 47.8-----
2024-05-20 02:06 am NE 4.1 6.0----30.28- 47.8-----
2024-05-20 02:00 am NE 4.1 5.1----30.28+0.00 47.7-----
2024-05-20 01:54 am- 0.0 1.9----30.28- 48.4-----
2024-05-20 01:48 am NE 1.9 6.0----30.28-------
2024-05-20 01:42 amNNE 4.1 6.0----30.28- 48.4-----
2024-05-20 01:36 amNNE 4.1 5.1----30.28- 48.9-----
2024-05-20 01:30 amNNE 2.9 4.1----30.28- 49.8-----
2024-05-20 01:24 am N 2.9 4.1----30.28- 49.5-----
2024-05-20 01:18 amNNW 1.9 4.1----30.28- 50.4-----
2024-05-20 01:12 am N 1.9 4.1----30.28- 50.4-----
2024-05-20 01:06 amNNE 1.9 2.9----30.28- 50.0-----
2024-05-20 01:00 am N 4.1 5.1----30.28+0.02 50.2-----
2024-05-20 12:54 am N 1.0 4.1----30.28- 51.6-----
2024-05-20 12:48 amNNE 1.9 5.1----30.28- 50.9-----
2024-05-20 12:42 amNNE 2.9 5.1----30.28- 50.5-----
2024-05-20 12:36 am N 2.9 5.1----30.28- 51.1-----
2024-05-20 12:30 amNNE 1.9 4.1----30.28- 51.4-----
2024-05-20 12:24 am N 4.1 5.1----30.27- 50.9-----
2024-05-20 12:18 am N 2.9 4.1----30.27- 51.4-----
2024-05-20 12:12 am N 1.9 4.1----30.27- 51.6-----
2024-05-20 12:06 amNNE 1.9 4.1----30.27- 52.2-----
2024-05-20 12:00 amNNE 1.0 4.1----30.27+0.02 52.5-----
2024-05-19 11:54 pm N 2.9 4.1----30.27- 52.3-----
2024-05-19 11:48 pmNNE 1.0 4.1----30.27-------
2024-05-19 11:42 pmNNE 2.9 5.1----30.27- 52.0-----
2024-05-19 11:36 pm NE 1.9 2.9----30.27- 53.8-----
2024-05-19 11:30 pm- 0.0 1.0----30.27- 55.2-----
2024-05-19 11:24 pm- 0.0 1.0----30.27- 55.2-----
2024-05-19 11:18 pm- 0.0 1.0----30.27-------
2024-05-19 11:12 pmWNW 1.0 4.1----30.27- 53.4-----
2024-05-19 11:06 pmWNW 2.9 5.1----30.27- 52.7-----
2024-05-19 11:00 pm NW 2.9 4.1----30.27+0.03 52.3-----
2024-05-19 10:54 pm N 1.0 4.1----30.27- 54.3-----
2024-05-19 10:48 pmNNW 1.9 2.9----30.27- 54.1-----
2024-05-19 10:42 pm N 1.0 2.9----30.27- 54.7-----
2024-05-19 10:36 pm N 1.9 2.9----30.27- 53.4-----
2024-05-19 10:30 pm- 0.0 1.9----30.27- 55.0-----
2024-05-19 10:24 pm- 0.0 2.9----30.27- 55.2-----
2024-05-19 10:18 pm-------30.27-------
2024-05-19 10:12 pm-------30.27-------
2024-05-19 10:06 pm-------30.27-------
2024-05-19 10:00 pm N 1.0 1.9----30.27+0.02 56.1-----
2024-05-19 09:54 pmNNW 1.0 2.9----30.26- 55.4-----
2024-05-19 09:48 pmNNE 1.9 1.9----30.26- 56.3-----
2024-05-19 09:42 pm NE 1.0 2.9----30.26- 56.7-----
2024-05-19 09:36 pmNNE 1.9 1.9----30.26- 57.2-----
2024-05-19 09:30 pmENE 1.0 4.1----30.26- 57.0-----
2024-05-19 09:24 pm E 1.0 2.9----30.26- 57.2-----
2024-05-19 09:18 pm NE 1.9 2.9----30.26- 55.6-----
2024-05-19 09:12 pm NE 1.9 2.9----30.26- 56.1-----
2024-05-19 09:06 pm NE 1.9 2.9----30.26- 56.8-----
2024-05-19 09:00 pm NE 1.0 2.9----30.25+0.01 57.7-----
2024-05-19 08:54 pm NE 1.9 2.9----30.25- 57.0-----
2024-05-19 08:48 pmNNE 1.9 2.9----30.25- 57.7-----
2024-05-19 08:42 pmNNE 1.9 4.1----30.25- 57.7-----
2024-05-19 08:36 pm N 1.9 2.9----30.25- 57.6-----
2024-05-19 08:30 pmNNE 2.9 4.1----30.25- 57.7-----
2024-05-19 08:24 pmNNE 1.9 4.1----30.25- 57.7-----
2024-05-19 08:18 pmNNE 1.9 4.1----30.25-------
2024-05-19 08:12 pmNNE 1.9 4.1----30.25-------
2024-05-19 08:06 pmNNE 2.9 5.1----30.25-------
2024-05-19 08:00 pmNNE 2.9 5.1----30.25+0.00 58.1-----
2024-05-19 07:54 pmNNE 2.9 5.1----30.25- 58.3-----
2024-05-19 07:48 pmNNE 2.9 5.1----30.25- 58.3-----
2024-05-19 07:42 pmNNE 1.9 4.1----30.25- 59.0-----
2024-05-19 07:36 pm- 0.0 2.9----30.25- 59.7-----
2024-05-19 07:30 pmNNW 1.9 5.1----30.24- 58.6-----
2024-05-19 07:24 pmNNE 2.9 4.1----30.25- 59.0-----
2024-05-19 07:18 pmNNE 2.9 5.1----30.25- 58.3-----
2024-05-19 07:12 pm N 4.1 6.0----30.25- 58.6-----
2024-05-19 07:06 pm N 5.1 7.0----30.24- 58.3-----
2024-05-19 07:00 pmNNE 4.1 6.0----30.24- 58.8-----
2024-05-19 06:54 pm- 0.0 2.9----30.24- 60.6-----
2024-05-19 06:48 pmWNW 1.9 5.1----30.24-------
2024-05-19 06:42 pm W 4.1 6.0----30.24- 60.3-----
2024-05-19 06:36 pm W 5.1 6.0----30.24- 59.7-----
2024-05-19 06:30 pm W 5.1 6.0----30.24-------
2024-05-19 06:24 pm W 4.1 8.0----30.24-------
2024-05-19 06:18 pm W 6.0 8.0----30.24-------
2024-05-19 06:12 pmWNW 4.1 5.1----30.24-------
2024-05-19 06:06 pm W 2.9 4.1----30.24-------
2024-05-19 06:00 pm W 4.1 6.0----30.24-0.02------
2024-05-19 05:54 pm W 6.0 7.0----30.24-------